Starlink 11444

operational
NORAD ID: 62409 Int'l Des: 2024-249 Owner: SPXS Country: US Constellation: starlink
LEOCIRCULAR

Über Starlink 11444

Beschreibung wird geladen...

Live-Position

3D-Globus wird geladen...

Nächste Überflüge

Höhenverlauf

Altitude vs Time

uPlot chart will show altitude changes over time

Zweizeiliger Elementsatz

1 62409U 24249A 25257.98727387 .00220286 00000-0 16694-2 0 9992
2 62409 42.9984 147.0518 0001087 240.5576 119.5183 15.70922365 41845
Epoch: 14. Sept. 2025 • Age: 19 hours

Aktueller Status

Höhe 356.9 km
Geschwindigkeit 7.70 km/s
Subsatellitenpunkt 32.10°N, 83.87°W
Startdatum 23. Dez. 2024
Alter 0.7 years
Typ internet

Technische Details

Klassifizierung Payload
Masse 960.00 kg
Trockenmasse 910.00 kg
Gesamtmasse 960.00 kg
Länge 0.30 m
Durchmesser 4.10 m
Spannweite 29.00 m
Form Box + pan
Hersteller SPXS
Bus-Typ Starlink V2MD
Phasenstatus In Orbit
Besitzer/Staat SPXS/US

Große Konstellationen

Loading constellations...